This is the latest recevied weather packets stored in our database for station/object KB3KBR-WX. If no packets are shown the sender has not sent any weather packets the latest 10 day(s).
| Time | Temp. | Humidity | Pressure | Rain* | Wind** | Luminosity | Snow |
|---|---|---|---|---|---|---|---|
| 1787432934 | 23.33° C | 74% | 1010 hPa | 0 mm | - | - | - |
| 1787432634 | 23.89° C | 75% | 1008.7 hPa | 0 mm | - | - | - |
| 1787432333 | 23.89° C | 74% | 1008.8 hPa | 0 mm | - | - | - |
| 1787432004 | 24.44° C | 74% | 1008.5 hPa | 0 mm | - | - | - |
| 1787431704 | 24.44° C | 73% | 1008.8 hPa | 0 mm | - | - | - |
| 1787431374 | 24.44° C | 72% | 1008.7 hPa | 0 mm | - | - | - |
| 1787431043 | 25° C | 72% | 1008.6 hPa | 0 mm | - | - | - |
| 1787430714 | 25.56° C | 69% | 1008.8 hPa | 0 mm | - | - | - |
| 1787430387 | 25.56° C | 69% | 1008.9 hPa | 0 mm | - | - | - |
| 1787430053 | 25.56° C | 68% | 1008.9 hPa | 0 mm | - | - | - |
| 1787429753 | 26.11° C | 65% | 1008.9 hPa | 0 mm | - | - | - |
| 1787429454 | 26.11° C | 65% | 1009.1 hPa | 0 mm | - | - | - |
| 1787429154 | 26.11° C | 63% | 1009.3 hPa | 0 mm | - | - | - |
| 1787428824 | 26.67° C | 62% | 1009.4 hPa | 0 mm | - | - | - |
| 1787428494 | 26.67° C | 62% | 1009.2 hPa | 0 mm | - | - | - |
| 1787428163 | 26.67° C | 60% | 1009 hPa | 0 mm | - | - | - |
| 1787427834 | 27.22° C | 62% | 1009 hPa | 0 mm | - | - | - |
| 1787427503 | 27.22° C | 63% | 1009.1 hPa | 0 mm | - | - | - |
| 1787427204 | 27.22° C | 60% | 1009.3 hPa | 0 mm | - | - | - |
| 1787426904 | 27.78° C | 60% | 1009.3 hPa | 0 mm | - | - | - |
| 1787426573 | 27.78° C | 58% | 1009.5 hPa | 0 mm | - | - | - |
| 1787426243 | 27.78° C | 60% | 1009.5 hPa | 0 mm | - | - | - |
| 1787425914 | 27.78° C | 63% | 1009.7 hPa | 0 mm | - | - | - |
| 1787425584 | 27.78° C | 61% | 1009.7 hPa | 0 mm | - | - | - |
| 1787425253 | 27.22° C | 64% | 1009.8 hPa | 0 mm | - | - | - |
* Rain latest hour (hover to see other rain measurements)
** Current wind speed in m/s (hover to see current wind gust speed)